Year,Month,Day,Hour,Minute,Value (Times are PST for temperature in C)
2017,05,27,00,00,14.10
2017,05,27,00,01,14.20
2017,05,27,00,02,14.20
2017,05,27,00,03,14.20
2017,05,27,00,04,14.20
2017,05,27,00,05,14.30
2017,05,27,00,06,14.30
2017,05,27,00,07,14.40
2017,05,27,00,08,14.40
2017,05,27,00,09,14.40
2017,05,27,00,10,14.40
2017,05,27,00,11,14.50
2017,05,27,00,12,14.50
2017,05,27,00,13,14.50
2017,05,27,00,14,14.50
2017,05,27,00,15,14.50
2017,05,27,00,16,14.50
2017,05,27,00,17,14.50
2017,05,27,00,18,14.50
2017,05,27,00,19,14.50
2017,05,27,00,20,14.50
2017,05,27,00,21,14.50
2017,05,27,00,22,14.50
2017,05,27,00,23,14.50
2017,05,27,00,24,14.50
2017,05,27,00,25,14.50
2017,05,27,00,26,14.50
2017,05,27,00,27,14.50
2017,05,27,00,28,14.40
2017,05,27,00,29,14.40
2017,05,27,00,30,14.40
2017,05,27,00,31,14.40
2017,05,27,00,32,14.40
2017,05,27,00,33,14.40
2017,05,27,00,34,14.30
2017,05,27,00,35,14.30
2017,05,27,00,36,14.30
2017,05,27,00,37,14.20
2017,05,27,00,38,14.20
2017,05,27,00,39,14.20
2017,05,27,00,40,14.20
2017,05,27,00,41,14.20
2017,05,27,00,42,14.20
2017,05,27,00,43,14.20
2017,05,27,00,44,14.10
2017,05,27,00,45,14.10
2017,05,27,00,46,14.00
2017,05,27,00,47,14.00
2017,05,27,00,48,14.00
2017,05,27,00,49,13.90
2017,05,27,00,50,13.90
2017,05,27,00,51,13.90
2017,05,27,00,52,13.80
2017,05,27,00,53,13.80
2017,05,27,00,54,13.80
2017,05,27,00,55,13.70
2017,05,27,00,56,13.70
2017,05,27,00,57,13.70
2017,05,27,00,58,13.70
2017,05,27,00,59,13.60
2017,05,27,01,00,13.60
2017,05,27,01,01,13.60
2017,05,27,01,02,13.50
2017,05,27,01,03,13.50
2017,05,27,01,04,13.40
2017,05,27,01,05,13.40
2017,05,27,01,06,13.30
2017,05,27,01,07,13.30
2017,05,27,01,08,13.30
2017,05,27,01,09,13.30
2017,05,27,01,10,13.30
2017,05,27,01,11,13.30
2017,05,27,01,12,13.30
2017,05,27,01,13,13.20
2017,05,27,01,14,13.20
2017,05,27,01,15,13.20
2017,05,27,01,16,13.20
2017,05,27,01,17,13.20
2017,05,27,01,18,13.20
2017,05,27,01,19,13.20
2017,05,27,01,20,13.20
2017,05,27,01,21,13.20
2017,05,27,01,22,13.20
2017,05,27,01,23,13.20
2017,05,27,01,24,13.10
2017,05,27,01,25,13.10
2017,05,27,01,26,13.10
2017,05,27,01,27,13.10
2017,05,27,01,28,13.10
2017,05,27,01,29,13.10
2017,05,27,01,30,13.10
2017,05,27,01,31,13.10
2017,05,27,01,32,13.10
2017,05,27,01,33,13.10
2017,05,27,01,34,13.10
2017,05,27,01,35,13.00
2017,05,27,01,36,13.00
2017,05,27,01,37,13.00
2017,05,27,01,38,13.00
2017,05,27,01,39,13.00
2017,05,27,01,40,13.00
2017,05,27,01,41,13.00
2017,05,27,01,42,13.00
2017,05,27,01,43,13.00
2017,05,27,01,44,13.00
2017,05,27,01,45,13.00
2017,05,27,01,46,13.00
2017,05,27,01,47,13.00
2017,05,27,01,48,13.00
2017,05,27,01,49,13.10
2017,05,27,01,50,13.10
2017,05,27,01,51,13.10
2017,05,27,01,52,13.10
2017,05,27,01,53,13.10
2017,05,27,01,54,13.20
2017,05,27,01,55,13.20
2017,05,27,01,56,13.20
2017,05,27,01,57,13.20
2017,05,27,01,58,13.20
2017,05,27,01,59,13.20
2017,05,27,02,00,13.20
2017,05,27,02,01,13.20
2017,05,27,02,02,13.20
2017,05,27,02,03,13.20
2017,05,27,02,04,13.10
2017,05,27,02,05,13.10
2017,05,27,02,06,13.10
2017,05,27,02,07,13.00
2017,05,27,02,08,13.00
2017,05,27,02,09,13.00
2017,05,27,02,10,12.90
2017,05,27,02,11,12.90
2017,05,27,02,12,12.90
2017,05,27,02,13,12.90
2017,05,27,02,14,12.90
2017,05,27,02,15,12.90
2017,05,27,02,16,12.90
2017,05,27,02,17,12.90
2017,05,27,02,18,12.90
2017,05,27,02,19,12.90
2017,05,27,02,20,12.90
2017,05,27,02,21,12.90
2017,05,27,02,22,12.90
2017,05,27,02,23,12.90
2017,05,27,02,24,12.80
2017,05,27,02,25,12.80
2017,05,27,02,26,12.80
2017,05,27,02,27,12.80
2017,05,27,02,28,12.80
2017,05,27,02,29,12.80
2017,05,27,02,30,12.80
2017,05,27,02,31,12.80
2017,05,27,02,32,12.80
2017,05,27,02,33,12.80
2017,05,27,02,34,12.80
2017,05,27,02,35,12.70
2017,05,27,02,36,12.70
2017,05,27,02,37,12.70
2017,05,27,02,38,12.70
2017,05,27,02,39,12.70
2017,05,27,02,40,12.70
2017,05,27,02,41,12.60
2017,05,27,02,42,12.60
2017,05,27,02,43,12.60
2017,05,27,02,44,12.50
2017,05,27,02,45,12.50
2017,05,27,02,46,12.50
2017,05,27,02,47,12.50
2017,05,27,02,48,12.40
2017,05,27,02,49,12.40
2017,05,27,02,50,12.40
2017,05,27,02,51,12.40
2017,05,27,02,52,12.30
2017,05,27,02,53,12.30
2017,05,27,02,54,12.30
2017,05,27,02,55,12.30
2017,05,27,02,56,12.30
2017,05,27,02,57,12.30
2017,05,27,02,58,12.30
2017,05,27,02,59,12.20
2017,05,27,03,00,12.20
2017,05,27,03,01,12.20
2017,05,27,03,02,12.20
2017,05,27,03,03,12.20
2017,05,27,03,04,12.20
2017,05,27,03,05,12.20
2017,05,27,03,06,12.20
2017,05,27,03,07,12.20
2017,05,27,03,08,12.20
2017,05,27,03,09,12.20
2017,05,27,03,10,12.20
2017,05,27,03,11,12.20
2017,05,27,03,12,12.20
2017,05,27,03,13,12.10
2017,05,27,03,14,12.10
2017,05,27,03,15,12.10
2017,05,27,03,16,12.10
2017,05,27,03,17,12.00
2017,05,27,03,18,12.00
2017,05,27,03,19,12.00
2017,05,27,03,20,12.00
2017,05,27,03,21,12.00
2017,05,27,03,22,12.00
2017,05,27,03,23,12.00
2017,05,27,03,24,12.00
2017,05,27,03,25,12.00
2017,05,27,03,26,12.00
2017,05,27,03,27,12.00
2017,05,27,03,28,12.00
2017,05,27,03,29,11.90
2017,05,27,03,30,11.90
2017,05,27,03,31,11.90
2017,05,27,03,32,11.80
2017,05,27,03,33,11.80
2017,05,27,03,34,11.80
2017,05,27,03,35,11.80
2017,05,27,03,36,11.80
2017,05,27,03,37,11.70
2017,05,27,03,38,11.70
2017,05,27,03,39,11.70
2017,05,27,03,40,11.60
2017,05,27,03,41,11.60
2017,05,27,03,42,11.60
2017,05,27,03,43,11.50
2017,05,27,03,44,11.40
2017,05,27,03,45,11.40
2017,05,27,03,46,11.40
2017,05,27,03,47,11.40
2017,05,27,03,48,11.30
2017,05,27,03,49,11.30
2017,05,27,03,50,11.30
2017,05,27,03,51,11.30
2017,05,27,03,52,11.20
2017,05,27,03,53,11.20
2017,05,27,03,54,11.20
2017,05,27,03,55,11.20
2017,05,27,03,56,11.20
2017,05,27,03,57,11.20
2017,05,27,03,58,11.10
2017,05,27,03,59,11.10
2017,05,27,04,00,11.10
2017,05,27,04,01,11.10
2017,05,27,04,02,11.10
2017,05,27,04,03,11.10
2017,05,27,04,04,11.10
2017,05,27,04,05,11.10
2017,05,27,04,06,11.10
2017,05,27,04,07,11.00
2017,05,27,04,08,10.90
2017,05,27,04,09,10.90
2017,05,27,04,10,10.90
2017,05,27,04,11,10.90
2017,05,27,04,12,10.90
2017,05,27,04,13,10.90
2017,05,27,04,14,10.90
2017,05,27,04,15,10.90
2017,05,27,04,16,10.90
2017,05,27,04,17,10.90
2017,05,27,04,18,10.90
2017,05,27,04,19,10.90
2017,05,27,04,20,10.90
2017,05,27,04,21,10.80
2017,05,27,04,22,10.80
2017,05,27,04,23,10.80
2017,05,27,04,24,10.80
2017,05,27,04,25,10.80
2017,05,27,04,26,10.80
2017,05,27,04,27,10.80
2017,05,27,04,28,10.80
2017,05,27,04,29,10.70
2017,05,27,04,30,10.70
2017,05,27,04,31,10.70
2017,05,27,04,32,10.70
2017,05,27,04,33,10.70
2017,05,27,04,34,10.70
2017,05,27,04,35,10.70
2017,05,27,04,36,10.70
2017,05,27,04,37,10.70
2017,05,27,04,38,10.70
2017,05,27,04,39,10.70
2017,05,27,04,40,10.70
2017,05,27,04,41,10.70
2017,05,27,04,42,10.70
2017,05,27,04,43,10.70
2017,05,27,04,44,10.70
2017,05,27,04,45,10.70
2017,05,27,04,46,10.60
2017,05,27,04,47,10.60
2017,05,27,04,48,10.60
2017,05,27,04,49,10.60
2017,05,27,04,50,10.60
2017,05,27,04,51,10.60
2017,05,27,04,52,10.60
2017,05,27,04,53,10.60
2017,05,27,04,54,10.60
2017,05,27,04,55,10.60
2017,05,27,04,56,10.60
2017,05,27,04,57,10.70
2017,05,27,04,58,10.70
2017,05,27,04,59,10.70
2017,05,27,05,00,10.70
2017,05,27,05,01,10.80
2017,05,27,05,02,10.80
2017,05,27,05,03,10.80
2017,05,27,05,04,10.80
2017,05,27,05,05,10.80
2017,05,27,05,06,10.80
2017,05,27,05,07,10.80
2017,05,27,05,08,10.80
2017,05,27,05,09,10.80
2017,05,27,05,10,10.70
2017,05,27,05,11,10.70
2017,05,27,05,12,10.70
2017,05,27,05,13,10.70
2017,05,27,05,14,10.70
2017,05,27,05,15,10.70
2017,05,27,05,16,10.70
2017,05,27,05,17,10.60
2017,05,27,05,18,10.60
2017,05,27,05,19,10.60
2017,05,27,05,20,10.60
2017,05,27,05,21,10.60
2017,05,27,05,22,10.60
2017,05,27,05,23,10.60
2017,05,27,05,24,10.60
2017,05,27,05,25,10.60
2017,05,27,05,26,10.60
2017,05,27,05,27,10.60
2017,05,27,05,28,10.60
2017,05,27,05,29,10.60
2017,05,27,05,30,10.60
2017,05,27,05,31,10.60
2017,05,27,05,32,10.60
2017,05,27,05,33,10.60
2017,05,27,05,34,10.60
2017,05,27,05,35,10.60
2017,05,27,05,36,10.60
2017,05,27,05,37,10.60
2017,05,27,05,38,10.60
2017,05,27,05,39,10.60
2017,05,27,05,40,10.60
2017,05,27,05,41,10.60
2017,05,27,05,42,10.60
2017,05,27,05,43,10.60
2017,05,27,05,44,10.60
2017,05,27,05,45,10.60
2017,05,27,05,46,10.70
2017,05,27,05,47,10.80
2017,05,27,05,48,10.80
2017,05,27,05,49,10.90
2017,05,27,05,50,10.90
2017,05,27,05,51,10.90
2017,05,27,05,52,10.90
2017,05,27,05,53,10.90
2017,05,27,05,54,10.90
2017,05,27,05,55,10.90
2017,05,27,05,56,11.10
2017,05,27,05,57,11.10
2017,05,27,05,58,11.10
2017,05,27,05,59,11.10
2017,05,27,06,00,11.10
2017,05,27,06,01,11.10
2017,05,27,06,02,11.10
2017,05,27,06,03,11.10
2017,05,27,06,04,11.10
2017,05,27,06,05,11.10
2017,05,27,06,06,11.10
2017,05,27,06,07,11.10
2017,05,27,06,08,11.10
2017,05,27,06,09,11.10
2017,05,27,06,10,11.20
2017,05,27,06,11,11.20
2017,05,27,06,12,11.20
2017,05,27,06,13,11.20
2017,05,27,06,14,11.20
2017,05,27,06,15,11.20
2017,05,27,06,16,11.20
2017,05,27,06,17,11.20
2017,05,27,06,18,11.30
2017,05,27,06,19,11.30
2017,05,27,06,20,11.30
2017,05,27,06,21,11.30
2017,05,27,06,22,11.30
2017,05,27,06,23,11.40
2017,05,27,06,24,11.40
2017,05,27,06,25,11.40
2017,05,27,06,26,11.40
2017,05,27,06,27,11.40
2017,05,27,06,28,11.40
2017,05,27,06,29,11.40
2017,05,27,06,30,11.40
2017,05,27,06,31,11.40
2017,05,27,06,32,11.60
2017,05,27,06,33,11.60
2017,05,27,06,34,11.60
2017,05,27,06,35,11.60
2017,05,27,06,36,11.60
2017,05,27,06,37,11.60
2017,05,27,06,38,11.60
2017,05,27,06,39,11.60
2017,05,27,06,40,11.70
2017,05,27,06,41,11.70
2017,05,27,06,42,11.80
2017,05,27,06,43,11.80
2017,05,27,06,44,11.80
2017,05,27,06,45,11.80
2017,05,27,06,46,11.90
2017,05,27,06,47,11.90
2017,05,27,06,48,12.00
2017,05,27,06,49,12.00
2017,05,27,06,50,12.00
2017,05,27,06,51,12.10
2017,05,27,06,52,12.20
2017,05,27,06,53,12.30
2017,05,27,06,54,12.30
2017,05,27,06,55,12.40
2017,05,27,06,56,12.50
2017,05,27,06,57,12.50
2017,05,27,06,58,12.60
2017,05,27,06,59,12.60
2017,05,27,07,00,12.70
2017,05,27,07,01,12.70
2017,05,27,07,02,12.80
2017,05,27,07,03,12.80
2017,05,27,07,04,13.00
2017,05,27,07,05,13.00
2017,05,27,07,06,13.10
2017,05,27,07,07,13.20
2017,05,27,07,08,13.30
2017,05,27,07,09,13.30
2017,05,27,07,10,13.40
2017,05,27,07,11,13.50
2017,05,27,07,12,13.50
2017,05,27,07,13,13.60
2017,05,27,07,14,13.70
2017,05,27,07,15,13.70
2017,05,27,07,16,13.80
2017,05,27,07,17,13.80
2017,05,27,07,18,13.90
2017,05,27,07,19,13.90
2017,05,27,07,20,14.00
2017,05,27,07,21,14.10
2017,05,27,07,22,14.10
2017,05,27,07,23,14.20
2017,05,27,07,24,14.30
2017,05,27,07,25,14.40
2017,05,27,07,26,14.40
2017,05,27,07,27,14.50
2017,05,27,07,28,14.60
2017,05,27,07,29,14.70
2017,05,27,07,30,14.80
2017,05,27,07,31,15.00
2017,05,27,07,32,15.00
2017,05,27,07,33,15.10
2017,05,27,07,34,15.20
2017,05,27,07,35,15.20
2017,05,27,07,36,15.30
2017,05,27,07,37,15.30
2017,05,27,07,38,15.40
2017,05,27,07,39,15.40
2017,05,27,07,40,15.40
2017,05,27,07,41,15.30
2017,05,27,07,42,15.30
2017,05,27,07,43,15.20
2017,05,27,07,44,15.10
2017,05,27,07,45,15.00
2017,05,27,07,46,15.00
2017,05,27,07,47,14.90
2017,05,27,07,48,14.80
2017,05,27,07,49,14.70
2017,05,27,07,50,14.60
2017,05,27,07,51,14.50
2017,05,27,07,52,14.40
2017,05,27,07,53,14.30
2017,05,27,07,54,14.30
2017,05,27,07,55,14.20
2017,05,27,07,56,14.20
2017,05,27,07,57,14.20
2017,05,27,07,58,14.20
2017,05,27,07,59,14.20
2017,05,27,08,00,14.10
2017,05,27,08,01,14.10
2017,05,27,08,02,14.10
2017,05,27,08,03,14.10
2017,05,27,08,04,14.20
2017,05,27,08,05,14.20
2017,05,27,08,06,14.20
2017,05,27,08,07,14.20
2017,05,27,08,08,14.20
2017,05,27,08,09,14.20
2017,05,27,08,10,14.20
2017,05,27,08,11,14.20
2017,05,27,08,12,14.20
2017,05,27,08,13,14.20
2017,05,27,08,14,14.20
2017,05,27,08,15,14.20
2017,05,27,08,16,14.20
2017,05,27,08,17,14.20
2017,05,27,08,18,14.20
2017,05,27,08,19,14.10
2017,05,27,08,20,14.10
2017,05,27,08,21,14.10
2017,05,27,08,22,14.00
2017,05,27,08,23,14.00
2017,05,27,08,24,14.00
2017,05,27,08,25,13.90
2017,05,27,08,26,13.90
2017,05,27,08,27,13.90
2017,05,27,08,28,13.90
2017,05,27,08,29,13.80
2017,05,27,08,30,13.80
2017,05,27,08,31,13.70
2017,05,27,08,32,13.70
2017,05,27,08,33,13.70
2017,05,27,08,34,13.70
2017,05,27,08,35,13.70
2017,05,27,08,36,13.70
2017,05,27,08,37,13.70
2017,05,27,08,38,13.60
2017,05,27,08,39,13.50
2017,05,27,08,40,13.50
2017,05,27,08,41,13.50
2017,05,27,08,42,13.50
2017,05,27,08,43,13.60
2017,05,27,08,44,13.60
2017,05,27,08,45,13.60
2017,05,27,08,46,13.60
2017,05,27,08,47,13.60
2017,05,27,08,48,13.60
2017,05,27,08,49,13.60
2017,05,27,08,50,13.60
2017,05,27,08,51,13.70
2017,05,27,08,52,13.70
2017,05,27,08,53,13.70
2017,05,27,08,54,13.70
2017,05,27,08,55,13.70
2017,05,27,08,56,13.70
2017,05,27,08,57,13.70
2017,05,27,08,58,13.80
2017,05,27,08,59,13.80
2017,05,27,09,00,13.70
2017,05,27,09,01,13.60
2017,05,27,09,02,13.50
2017,05,27,09,03,13.50
2017,05,27,09,04,13.40
2017,05,27,09,05,13.30
2017,05,27,09,06,13.30
2017,05,27,09,07,13.30
2017,05,27,09,08,13.40
2017,05,27,09,09,13.50
2017,05,27,09,10,13.60
2017,05,27,09,11,13.80
2017,05,27,09,12,14.30
2017,05,27,09,13,14.60
2017,05,27,09,14,14.80
2017,05,27,09,15,14.80
2017,05,27,09,16,14.60
2017,05,27,09,17,14.50
2017,05,27,09,18,14.40
2017,05,27,09,19,14.30
2017,05,27,09,20,14.20
2017,05,27,09,21,14.20
2017,05,27,09,22,14.20
2017,05,27,09,23,14.30
2017,05,27,09,24,14.30
2017,05,27,09,25,14.30
2017,05,27,09,26,14.30
2017,05,27,09,27,14.30
2017,05,27,09,28,14.20
2017,05,27,09,29,14.20
2017,05,27,09,30,14.20
2017,05,27,09,31,14.10
2017,05,27,09,32,14.00
2017,05,27,09,33,14.10
2017,05,27,09,34,14.00
2017,05,27,09,35,14.10
2017,05,27,09,36,14.10
2017,05,27,09,37,14.10
2017,05,27,09,38,14.00
2017,05,27,09,39,13.80
2017,05,27,09,40,13.70
2017,05,27,09,41,13.60
2017,05,27,09,42,13.50
2017,05,27,09,43,13.30
2017,05,27,09,44,13.00
2017,05,27,09,45,12.80
2017,05,27,09,46,12.70
2017,05,27,09,47,12.70
2017,05,27,09,48,12.60
2017,05,27,09,49,12.50
2017,05,27,09,50,12.40
2017,05,27,09,51,12.40
2017,05,27,09,52,12.30
2017,05,27,09,53,12.30
2017,05,27,09,54,12.30
2017,05,27,09,55,12.20
2017,05,27,09,56,12.10
2017,05,27,09,57,12.10
2017,05,27,09,58,12.00
2017,05,27,09,59,12.00
2017,05,27,10,00,12.00
2017,05,27,10,01,12.00
2017,05,27,10,02,12.00
2017,05,27,10,03,12.10
2017,05,27,10,04,12.10
2017,05,27,10,05,12.10
2017,05,27,10,06,12.10
2017,05,27,10,07,12.10
2017,05,27,10,08,12.00
2017,05,27,10,09,12.00
2017,05,27,10,10,12.10
2017,05,27,10,11,12.10
2017,05,27,10,12,12.10
2017,05,27,10,13,12.00
2017,05,27,10,14,12.10
2017,05,27,10,15,12.10
2017,05,27,10,16,12.20
2017,05,27,10,17,12.20
2017,05,27,10,18,12.20
2017,05,27,10,19,12.20
2017,05,27,10,20,12.30
2017,05,27,10,21,12.30
2017,05,27,10,22,12.30
2017,05,27,10,23,12.40
2017,05,27,10,24,12.40
2017,05,27,10,25,12.40
2017,05,27,10,26,12.50
2017,05,27,10,27,12.50
2017,05,27,10,28,12.60
2017,05,27,10,29,12.60
2017,05,27,10,30,12.70
2017,05,27,10,31,12.80
2017,05,27,10,32,12.80
2017,05,27,10,33,12.80
2017,05,27,10,34,12.80
2017,05,27,10,35,12.80
2017,05,27,10,36,12.90
2017,05,27,10,37,12.90
2017,05,27,10,38,12.90
2017,05,27,10,39,12.90
2017,05,27,10,40,12.90
2017,05,27,10,41,13.00
2017,05,27,10,42,13.00
2017,05,27,10,43,13.00
2017,05,27,10,44,13.10
2017,05,27,10,45,13.10
2017,05,27,10,46,13.10
2017,05,27,10,47,13.20
2017,05,27,10,48,13.20
2017,05,27,10,49,13.20
2017,05,27,10,50,13.30
2017,05,27,10,51,13.30
2017,05,27,10,52,13.30
2017,05,27,10,53,13.40
2017,05,27,10,54,13.40
2017,05,27,10,55,13.40
2017,05,27,10,56,13.40
2017,05,27,10,57,13.40
2017,05,27,10,58,13.40
2017,05,27,10,59,13.50
2017,05,27,11,00,13.50
2017,05,27,11,01,13.60
2017,05,27,11,02,13.60
2017,05,27,11,03,13.60
2017,05,27,11,04,13.70
2017,05,27,11,05,13.70
2017,05,27,11,06,13.70
2017,05,27,11,07,13.80
2017,05,27,11,08,13.80
2017,05,27,11,09,13.90
2017,05,27,11,10,13.90
2017,05,27,11,11,13.90
2017,05,27,11,12,13.90
2017,05,27,11,13,14.00
2017,05,27,11,14,14.00
2017,05,27,11,15,13.90
2017,05,27,11,16,13.90
2017,05,27,11,17,13.90
2017,05,27,11,18,14.00
2017,05,27,11,19,14.00
2017,05,27,11,20,14.10
2017,05,27,11,21,14.20
2017,05,27,11,22,14.20
2017,05,27,11,23,14.30
2017,05,27,11,24,14.30
2017,05,27,11,25,14.40
2017,05,27,11,26,14.40
2017,05,27,11,27,14.30
2017,05,27,11,28,14.40
2017,05,27,11,29,14.40
2017,05,27,11,30,14.50
2017,05,27,11,31,14.50
2017,05,27,11,32,14.50
2017,05,27,11,33,14.60
2017,05,27,11,34,14.60
2017,05,27,11,35,14.60
2017,05,27,11,36,14.60
2017,05,27,11,37,14.50
2017,05,27,11,38,14.40
2017,05,27,11,39,14.20
2017,05,27,11,40,14.20
2017,05,27,11,41,14.20
2017,05,27,11,42,14.20
2017,05,27,11,43,14.20
2017,05,27,11,44,14.20
2017,05,27,11,45,14.20
2017,05,27,11,46,14.40
2017,05,27,11,47,14.40
2017,05,27,11,48,14.30
2017,05,27,11,49,14.30
2017,05,27,11,50,14.20
2017,05,27,11,51,14.00
2017,05,27,11,52,13.90
2017,05,27,11,53,13.90
2017,05,27,11,54,13.80
2017,05,27,11,55,13.90
2017,05,27,11,56,13.90
2017,05,27,11,57,13.80
2017,05,27,11,58,13.80
2017,05,27,11,59,13.80
2017,05,27,12,00,13.80
2017,05,27,12,01,13.70
2017,05,27,12,02,13.70
2017,05,27,12,03,13.80
2017,05,27,12,04,13.80
2017,05,27,12,05,13.80
2017,05,27,12,06,13.80
2017,05,27,12,07,13.80
2017,05,27,12,08,13.90
2017,05,27,12,09,13.90
2017,05,27,12,10,13.90
2017,05,27,12,11,13.80
2017,05,27,12,12,13.70
2017,05,27,12,13,13.70
2017,05,27,12,14,13.70
2017,05,27,12,15,13.70
2017,05,27,12,16,13.80
2017,05,27,12,17,13.80
2017,05,27,12,18,13.90
2017,05,27,12,19,13.80
2017,05,27,12,20,13.80
2017,05,27,12,21,13.80
2017,05,27,12,22,13.70
2017,05,27,12,23,13.60
2017,05,27,12,24,13.60
2017,05,27,12,25,13.60
2017,05,27,12,26,13.60
2017,05,27,12,27,13.50
2017,05,27,12,28,13.30
2017,05,27,12,29,13.30
2017,05,27,12,30,13.20
2017,05,27,12,31,13.20
2017,05,27,12,32,13.30
2017,05,27,12,33,13.30
2017,05,27,12,34,13.30
2017,05,27,12,35,13.40
2017,05,27,12,36,13.40
2017,05,27,12,37,13.50
2017,05,27,12,38,13.50
2017,05,27,12,39,13.60
2017,05,27,12,40,13.60
2017,05,27,12,41,13.70
2017,05,27,12,42,13.80
2017,05,27,12,43,13.90
2017,05,27,12,44,13.90
2017,05,27,12,45,13.90
2017,05,27,12,46,14.00
2017,05,27,12,47,13.90
2017,05,27,12,48,13.90
2017,05,27,12,49,14.00
2017,05,27,12,50,14.00
2017,05,27,12,51,14.00
2017,05,27,12,52,13.90
2017,05,27,12,53,13.90
2017,05,27,12,54,14.00
2017,05,27,12,55,14.00
2017,05,27,12,56,14.00
2017,05,27,12,57,14.00
2017,05,27,12,58,14.10
2017,05,27,12,59,14.10
2017,05,27,13,00,14.10
2017,05,27,13,01,14.10
2017,05,27,13,02,14.00
2017,05,27,13,03,14.00
2017,05,27,13,04,14.00
2017,05,27,13,05,14.20
2017,05,27,13,06,14.30
2017,05,27,13,07,14.40
2017,05,27,13,08,14.50
2017,05,27,13,09,14.50
2017,05,27,13,10,14.50
2017,05,27,13,11,14.40
2017,05,27,13,12,14.40
2017,05,27,13,13,14.40
2017,05,27,13,14,14.50
2017,05,27,13,15,14.50
2017,05,27,13,16,14.40
2017,05,27,13,17,14.40
2017,05,27,13,18,14.50
2017,05,27,13,19,14.60
2017,05,27,13,20,14.60
2017,05,27,13,21,14.70
2017,05,27,13,22,14.80
2017,05,27,13,23,14.80
2017,05,27,13,24,14.80
2017,05,27,13,25,14.80
2017,05,27,13,26,14.90
2017,05,27,13,27,15.00
2017,05,27,13,28,15.00
2017,05,27,13,29,15.00
2017,05,27,13,30,14.90
2017,05,27,13,31,14.80
2017,05,27,13,32,14.80
2017,05,27,13,33,14.80
2017,05,27,13,34,14.80
2017,05,27,13,35,15.00
2017,05,27,13,36,15.00
2017,05,27,13,37,15.00
2017,05,27,13,38,14.90
2017,05,27,13,39,14.90
2017,05,27,13,40,14.90
2017,05,27,13,41,14.90
2017,05,27,13,42,14.90
2017,05,27,13,43,14.90
2017,05,27,13,44,14.90
2017,05,27,13,45,14.90
2017,05,27,13,46,14.90
2017,05,27,13,47,14.90
2017,05,27,13,48,14.90
2017,05,27,13,49,15.00
2017,05,27,13,50,15.10
2017,05,27,13,51,15.20
2017,05,27,13,52,15.30
2017,05,27,13,53,15.30
2017,05,27,13,54,15.30
2017,05,27,13,55,15.30
2017,05,27,13,56,15.30
2017,05,27,13,57,15.30
2017,05,27,13,58,15.40
2017,05,27,13,59,15.50
2017,05,27,14,00,15.60
2017,05,27,14,01,15.70
2017,05,27,14,02,15.80
2017,05,27,14,03,15.80
2017,05,27,14,04,15.80
2017,05,27,14,05,15.80
2017,05,27,14,06,15.80
2017,05,27,14,07,15.90
2017,05,27,14,08,16.00
2017,05,27,14,09,16.10
2017,05,27,14,10,16.10
2017,05,27,14,11,16.10
2017,05,27,14,12,16.10
2017,05,27,14,13,16.10
2017,05,27,14,14,16.10
2017,05,27,14,15,16.20
2017,05,27,14,16,16.30
2017,05,27,14,17,16.40
2017,05,27,14,18,16.50
2017,05,27,14,19,16.60
2017,05,27,14,20,16.60
2017,05,27,14,21,16.60
2017,05,27,14,22,16.60
2017,05,27,14,23,16.70
2017,05,27,14,24,16.60
2017,05,27,14,25,16.50
2017,05,27,14,26,16.40
2017,05,27,14,27,16.30
2017,05,27,14,28,16.20
2017,05,27,14,29,16.30
2017,05,27,14,30,16.30
2017,05,27,14,31,16.40
2017,05,27,14,32,16.40
2017,05,27,14,33,16.30
2017,05,27,14,34,16.30
2017,05,27,14,35,16.30
2017,05,27,14,36,16.30
2017,05,27,14,37,16.30
2017,05,27,14,38,16.30
2017,05,27,14,39,16.30
2017,05,27,14,40,16.20
2017,05,27,14,41,16.20
2017,05,27,14,42,16.20
2017,05,27,14,43,16.30
2017,05,27,14,44,16.30
2017,05,27,14,45,16.30
2017,05,27,14,46,16.30
2017,05,27,14,47,16.30
2017,05,27,14,48,16.30
2017,05,27,14,49,16.30
2017,05,27,14,50,16.40
2017,05,27,14,51,16.40
2017,05,27,14,52,16.40
2017,05,27,14,53,16.40
2017,05,27,14,54,16.40
2017,05,27,14,55,16.40
2017,05,27,14,56,16.40
2017,05,27,14,57,16.40
2017,05,27,14,58,16.40
2017,05,27,14,59,16.40
2017,05,27,15,00,16.40
2017,05,27,15,01,16.40
2017,05,27,15,02,16.40
2017,05,27,15,03,16.40
2017,05,27,15,04,16.40
2017,05,27,15,05,16.40
2017,05,27,15,06,16.40
2017,05,27,15,07,16.40
2017,05,27,15,08,16.40
2017,05,27,15,09,16.40
2017,05,27,15,10,16.50
2017,05,27,15,11,16.60
2017,05,27,15,12,16.70
2017,05,27,15,13,16.70
2017,05,27,15,14,16.70
2017,05,27,15,15,16.80
2017,05,27,15,16,16.90
2017,05,27,15,17,16.80
2017,05,27,15,18,16.80
2017,05,27,15,19,16.80
2017,05,27,15,20,16.80
2017,05,27,15,21,16.80
2017,05,27,15,22,16.70
2017,05,27,15,23,16.80
2017,05,27,15,24,16.90
2017,05,27,15,25,16.90
2017,05,27,15,26,17.00
2017,05,27,15,27,17.20
2017,05,27,15,28,17.30
2017,05,27,15,29,17.40
2017,05,27,15,30,17.40
2017,05,27,15,31,17.50
2017,05,27,15,32,17.50
2017,05,27,15,33,17.40
2017,05,27,15,34,17.30
2017,05,27,15,35,17.40
2017,05,27,15,36,17.50
2017,05,27,15,37,17.50
2017,05,27,15,38,17.50
2017,05,27,15,39,17.50
2017,05,27,15,40,17.50
2017,05,27,15,41,17.50
2017,05,27,15,42,17.60
2017,05,27,15,43,17.50
2017,05,27,15,44,17.50
2017,05,27,15,45,17.50
2017,05,27,15,46,17.60
2017,05,27,15,47,17.60
2017,05,27,15,48,17.60
2017,05,27,15,49,17.60
2017,05,27,15,50,17.60
2017,05,27,15,51,17.70
2017,05,27,15,52,17.70
2017,05,27,15,53,17.80
2017,05,27,15,54,17.90
2017,05,27,15,55,17.90
2017,05,27,15,56,18.10
2017,05,27,15,57,18.20
2017,05,27,15,58,18.20
2017,05,27,15,59,18.20
2017,05,27,16,00,18.20
2017,05,27,16,01,18.20
2017,05,27,16,02,18.20
2017,05,27,16,03,18.30
2017,05,27,16,04,18.30
2017,05,27,16,05,18.30
2017,05,27,16,06,18.30
2017,05,27,16,07,18.30
2017,05,27,16,08,18.30
2017,05,27,16,09,18.30
2017,05,27,16,10,18.40
2017,05,27,16,11,18.40
2017,05,27,16,12,18.50
2017,05,27,16,13,18.50
2017,05,27,16,14,18.60
2017,05,27,16,15,18.70
2017,05,27,16,16,18.70
2017,05,27,16,17,18.90
2017,05,27,16,18,18.90
2017,05,27,16,19,19.10
2017,05,27,16,20,19.10
2017,05,27,16,21,19.10
2017,05,27,16,22,19.10
2017,05,27,16,23,19.10
2017,05,27,16,24,19.10
2017,05,27,16,25,19.00
2017,05,27,16,26,18.80
2017,05,27,16,27,18.50
2017,05,27,16,28,18.40
2017,05,27,16,29,18.30
2017,05,27,16,30,18.30
2017,05,27,16,31,18.20
2017,05,27,16,32,18.20
2017,05,27,16,33,18.20
2017,05,27,16,34,18.10
2017,05,27,16,35,18.10
2017,05,27,16,36,18.10
2017,05,27,16,37,18.20
2017,05,27,16,38,18.20
2017,05,27,16,39,18.20
2017,05,27,16,40,18.10
2017,05,27,16,41,18.10
2017,05,27,16,42,18.10
2017,05,27,16,43,18.10
2017,05,27,16,44,18.20
2017,05,27,16,45,18.20
2017,05,27,16,46,18.20
2017,05,27,16,47,18.20
2017,05,27,16,48,18.10
2017,05,27,16,49,18.00
2017,05,27,16,50,17.90
2017,05,27,16,51,17.90
2017,05,27,16,52,17.90
2017,05,27,16,53,17.90
2017,05,27,16,54,17.70
2017,05,27,16,55,17.70
2017,05,27,16,56,17.70
2017,05,27,16,57,17.50
2017,05,27,16,58,17.40
2017,05,27,16,59,17.30
2017,05,27,17,00,17.30
2017,05,27,17,01,17.20
2017,05,27,17,02,17.20
2017,05,27,17,03,17.20
2017,05,27,17,04,17.30
2017,05,27,17,05,17.30
2017,05,27,17,06,17.40
2017,05,27,17,07,17.60
2017,05,27,17,08,17.70
2017,05,27,17,09,17.70
2017,05,27,17,10,17.80
2017,05,27,17,11,17.80
2017,05,27,17,12,17.80
2017,05,27,17,13,17.80
2017,05,27,17,14,17.60
2017,05,27,17,15,17.50
2017,05,27,17,16,17.40
2017,05,27,17,17,17.30
2017,05,27,17,18,17.30
2017,05,27,17,19,17.30